Location: Godiavel Galaoual
(15.2485°N, 12.6604°W)
Time: 00:49:08
(UTC+00:00)

Transit 4A - Pass Details

Date: 19 June 2021
Orbit: 872 x 972 km, 66.8° (Epoch: 29 July)

Event Time Altitude Azimuth Distance (km) Brightness Sun altitude
Rises 20:24:39 0° 338° (NNW) 3,460 11.8 -14.1°
Reaches altitude 10° 20:27:06 10° 338° (NNW) 2,529 11.0 -14.6°
Maximum altitude 20:32:58 86° 249° (WSW) 895 7.8 -15.8°
Enters shadow 20:37:47 16° 162° (SSE) 2,149 9.4 -16.8°
Drops below altitude 10° 20:38:57 10° 161° (SSE) 2,581 - -17.0°
Sets 20:41:29 0° 161° (SSE) 3,537 - -17.6°
